[Date Prev][Date Next][Thread Prev][Thread Next] - [Date Index][Thread Index][Author Index]

2 Line ISS Keps 4-4



ISS
1 25544U 98067A   04095.19226876  .00023715  00000-0  21548-3 0  4995
2 25544  51.6301 342.8118 0010085 352.8155  94.2775 15.67796402306705


----
Via the sarex mailing list at AMSAT.ORG courtesy of AMSAT-NA.
To unsubscribe, send "unsubscribe sarex" to Majordomo@amsat.org



AMSAT Top AMSAT Home